GALAXY 25 (G-25)

Last updated on Mon Dec 09 2024 00:02:40 GMT+0000 (Coordinated Universal Time)

1 24812U 97026A 24343.62333395 -.00000198 00000+0 00000+0 0 9998 2 24812 5.9858 74.1786 0001336 30.0627 317.0727 0.99090906100716

Satellite not in orbit

GALAXY 25 (G-25)